Flag for Canada Weather past 2 weeks in Pond Inlet, Nunavut Territory, Canada

Now
-35 °F

Scattered clouds.


Feels Like: -50 °F
Forecast: -38 / -22 °F
Wind: 5 mph from South

Location: Pond Inlet

Current Time: Feb 27, 2015 at 12:40:24 PM

Latest Report: Feb 27, 2015 at 12:00 PM


Visibility: 15 mi

Pressure: 29.59 "Hg

Humidity: 66%

Dew point: -42 °F

Location of Pond InletLocation

Historic Weather in Pond Inlet — Graph

°F

Pond Inlet temperature yesterday

Maximum temperature yesterday: -24 °F (at 12:00 AM)
Minimum temperature yesterday: -35 °F (at 10:00 PM)
Average temperature yesterday: -30 °F

Past Weeks' High & Low Weather Summary

 TemperatureHumidityPressure
High-24 °F (Feb 22, 6:00 PM)75% (Feb 15, 7:00 PM)30.52 "Hg (Feb 15, 7:00 PM)
Low-42 °F (Feb 13, 5:00 AM)58% (Feb 12, 9:00 PM)29.49 "Hg (Feb 25, 1:00 AM)
Average-31 °F67%29.94 "Hg
* Reported Feb 12 11:00 AM — Feb 27 11:00 AM, Pond Inlet, Weather by CustomWeather, © 2015

Note: Actual official high and low records may vary slightly from our data, if they occured in-between our weather recording intervals... More about our weather records

Advertising

Pond Inlet weather history for previous 24 hours

 ConditionsComfort  
Time TempWeatherWind HumidityBarometerVisibility
11:00 AM
Fri, Feb 27
-33 °FScattered clouds.6 mph66%29.61 "Hg20 mi
10:00 AM-33 °FSunny.6 mph66%29.62 "Hg9 mi
9:00 AM-35 °FSunny.8 mph66%29.63 "Hg9 mi
8:00 AM-35 °FSunny.8 mph66%29.65 "Hg9 mi
7:00 AM-35 °FSunny.3 mph66%29.67 "Hg9 mi
6:00 AM-31 °FClear.6 mph60%29.68 "Hg9 mi
5:00 AM-35 °FClear.8 mph66%29.70 "Hg9 mi
4:00 AM-35 °FClear.6 mph59%29.72 "Hg9 mi
3:00 AM-35 °FClear.6 mph66%29.74 "Hg9 mi
2:00 AM-36 °FClear.6 mph66%29.76 "Hg9 mi
1:00 AM-31 °FClear.3 mph60%29.77 "Hg9 mi
12:00 AM-33 °FClear.9 mph66%29.78 "Hg9 mi
11:00 PM
Thu, Feb 26
-31 °FClear.8 mph67%29.80 "Hg9 mi
10:00 PM-35 °FClear.5 mph59%29.83 "Hg9 mi
9:52 PM-33 °FClear.2 mph66%29.84 "Hg6 mi
9:00 PM-31 °FClear.5 mph67%29.85 "Hg9 mi
8:00 PM-33 °FClear.3 mph66%29.86 "Hg9 mi
7:00 PM-31 °FPassing clouds.3 mph67%29.87 "Hg15 mi
6:00 PM-33 °FPassing clouds.3 mph66%29.89 "Hg35 mi
5:00 PM-31 °FPassing clouds.3 mph67%29.90 "Hg35 mi
4:00 PM-29 °FClear.6 mph67%29.90 "Hg35 mi
3:00 PM-29 °FClear.7 mph67%29.91 "Hg35 mi
2:00 PM-29 °FSunny.3 mph67%29.92 "Hg40 mi
1:00 PM-31 °FSunny.5 mph67%29.92 "Hg40 mi
12:00 PM-27 °FSunny.2 mph67%29.91 "Hg40 mi
Weather by CustomWeather, © 2015

See weather overviewHow to use our weather pages